Погода в Алтайском

Казахстан     50°12′33″N   82°23′55″E
В апреле 2022 года жителям России запретили посещать сайт meteo.paraplan.net по решению Генеральной прокуратуры. Аудитория сайта уменьшилась в 10 раз. Владельцы сайта не видят смысла в поддержке погодного сервера в таких условиях. Сайт будет закрыт в октябре.
темп.,
°C
ветер,
м/с
пор.,
м/с
влажн.,
%
обл.,
%
осадки,
мм/ч
давл.,
гПа
погр.,
м
4 октября, вт
вт400:00+1св22530 0.0 102910
03:000св11540 0.0 102910
06:00−1св22580 0.0 103010
09:00+4св11390 0.0 1031193
12:00+11сз22230 0.0 1029729
15:00+13сз33170 0.0 10281214
18:00+8ссз33310 0.0 102923
21:00+4с22560 0.0 103111
5 октября, ср
ср500:00+2св11650 0.0 103210
03:00+1ссв11730 0.0 103310
06:000с11795 0.0 103410
09:00+4зсз116327 0.0 1035269
12:00+10сз33355 0.0 1034841
15:00+12ссз652269 0.0 10331037
18:00+8ссз3734100 0.0 1034346
21:00+6ссз223744 0.0 103458
6 октября, чт
чт600:00+4с22475 0.0 103411
03:00+4всв114923 0.0 103414
06:00+3ссз005867 0.0 103410
09:00+6юз114795 0.0 1034207
12:00+9сз3540100 0.0 1033528
15:00+7ссв2365100 0.1 1032159
18:00+7с237599 0.1 1032125
21:00+6с22855 0.0 103228
7 октября, пт
пт700:00+4ссв119121 0.0 103110
03:00+3св11925 0.0 103110
06:00+2св11935 0.0 103110
09:00+7всв01785 0.0 1030208
12:00+12сз23505 0.0 1028814
15:00+15ссз3333100 0.0 10261256
18:00+10сз2246100 0.0 102611
21:00+8св115675 0.0 102610
8 октября, сб
сб800:00+6в116238 0.0 102610
03:00+6в116532 0.0 102510
06:00+5в227177 0.0 102510
09:00+11юв235129 0.0 1024212
12:00+18ююв782963 0.0 1021937
15:00+21ююв792019 0.0 10181775
18:00+14юв33355 0.0 101919
21:00+11юв311435 0.0 1018161